Location: Aufkirchen
(47.9603°N, 11.3653°E)
Time: 15:37:05
(UTC+01:00)

Courier 1B Rocket - Pass Details

Date: 04 December 2020
Orbit: 920 x 1202 km, 28.2° (Epoch: 17 January)

Event Time Altitude Azimuth Distance (km) Brightness Sun altitude
Exits shadow 03:42:50 12° 158° (SSE) 2,959 7.6 -39.9°
Drops below altitude 10° 03:44:59 10° 142° (SE) 3,121 7.9 -39.5°
Sets 03:50:06 0° 115° (ESE) 4,093 8.9 -38.7°
